User: anonymous   Login
Location: Rottenacker
(48.2350°N, 9.6886°E)
Time: 19:59:28
(UTC+02:00)
Language:

Tiangong 2 - Orbit

View from above orbital plane
View from above orbital plane
View from above satellite
View from above satellite

Ground track
Ground track

The orbit data is extracted from the following two-line orbital elements,

1 41765U 16057A   18170.14322917  .00042920  89578-5  12688-3 0  9995
2 41765  42.7856 329.5196 0004324 305.1870  35.4862 15.92746167100309
Epoch (UTC): 19 June 2018 03:26:15
Eccentricity: 0.0004324
inclination: 42.7856°
perigee height: 292 km
apogee height: 297 km
right ascension of ascending node: 329.5196°
argument of perigee: 305.1870°
revolutions per day: 15.92746167
mean anomaly at epoch: 35.4862°
orbit number at epoch: 10030

The dashed part of the orbit path shows where the satellite is in the earth's shadow,  

DLR